Weather observations for the past three days for
Minneapolis - Flying Cloud Airport
Imperial (Metric)
Date Time (cdt) Wind (mph) Vis. (mi.) Weather Sky Cond. Temperature (ºF) Relative Humidity Wind Chill (°F) Heat Index (°F) Pressure Precipitation (in)
Air Dwpt 6 hour altimeter (in) sea level (mb) 1 hr 3 hr 6 hr
Max. Min.
18 07:53 Calm 10.00 Fair CLR 64 61 90% 30.23 1023.4
18 06:53 Calm 9.00 Partly Cloudy SCT002 60.1 59 62.1 57.9 96% 30.22 1023.2
18 05:53 Calm 7.00 Fair CLR 59 57 93% 30.22 1023.3
18 04:53 Calm 9.00 Fair CLR 60.1 57 90% 30.22 1023.1
18 03:53 Calm 10.00 A Few Clouds FEW070 60.1 57 90% 30.2 1022.6
18 02:53 Calm 10.00 Fair CLR 60.1 55 84% 30.2 1022.6
18 01:53 Calm 5.00 Fair with Haze CLR 60.1 54 80% 30.2 1022.5
18 00:53 Calm 10.00 Fair CLR 61 54 73.9 60.1 78% 30.19 1022.1
17 23:53 N 3 10.00 Fair CLR 63 54 73% 30.18 1021.8
17 22:53 N 5 10.00 Fair CLR 64 53.1 68% 30.17 1021.4
17 21:53 N 3 10.00 Fair CLR 66.9 50 55% 30.17 1021.3
17 20:53 N 3 9.00 Fair CLR 69.1 50 51% 30.15 1020.7
17 19:53 N 6 10.00 Fair CLR 72 50 46% 30.14 1020.4
17 18:53 N 7 9.00 Fair CLR 73.9 50 75.9 72 43% 30.14 1020.6
17 17:53 N 5 10.00 Fair CLR 75 50 42% 78 30.15 1020.7
17 16:53 N 8 10.00 Partly Cloudy SCT060 73 51.1 46% 30.15 1020.7
17 15:53 N 10 10.00 Partly Cloudy SCT055 73.9 51.1 45% 30.15 1020.6
17 14:53 NW 10 10.00 Mostly Cloudy BKN055 75 51.1 43% 78 30.15 1020.6
17 13:53 N 12 G 20 10.00 A Few Clouds FEW050 75 51.1 43% 78 30.14 1020.2
17 12:53 NW 12 G 22 10.00 A Few Clouds FEW049 73 50 73 62.1 44% 30.14 1020.4
17 11:53 N 6 G 24 10.00 Partly Cloudy SCT045 71.1 51.1 49% 30.15 1020.5
17 10:53 N 10 G 21 9.00 A Few Clouds FEW039 70 52 53% 30.14 1020.2
17 09:53 N 7 10.00 A Few Clouds FEW032 68 53.1 59% 30.13 1020.0
17 08:53 N 7 10.00 Fair CLR 66.9 54 63% 30.13 1019.9
17 07:53 N 9 10.00 Fair CLR 64.9 54 68% 30.11 1019.1
17 06:53 N 8 10.00 Fair CLR 62.1 53.1 68 61 73% 30.07 1018.0
17 05:53 N 8 10.00 Fair CLR 61 54 78% 30.05 1017.0
17 04:53 NW 6 10.00 Fair CLR 62.1 55 78% 30.03 1016.4
17 03:53 N 6 10.00 A Few Clouds FEW050 63 55 76% 30.01 1015.9
17 02:53 N 7 10.00 Fair CLR 64.9 54 68% 30 1015.5
17 01:53 NW 7 10.00 Fair CLR 66.9 54 63% 29.99 1015.1
17 00:53 NW 6 10.00 Fair CLR 66.9 54 79 66.9 63% 29.98 1014.6
16 23:53 N 5 10.00 Fair CLR 69.1 54 59% 29.97 1014.4
16 22:53 N 7 10.00 Fair CLR 71.1 55 57% 29.96 1013.9
16 21:53 NW 9 10.00 Fair CLR 73 55.9 55% 29.94 1013.5
16 20:53 W 5 10.00 Fair CLR 73 57 57% 29.92 1012.9
16 19:53 W 7 10.00 Fair CLR 78.1 55 45% 79 29.91 1012.2
16 18:53 N 9 10.00 Fair CLR 79 53.1 82 78.1 41% 79 29.91 1012.5
16 17:53 Vrbl 5 10.00 Partly Cloudy SCT060 81 53.1 38% 80 29.92 1012.8
16 16:53 NW 13 G 17 10.00 Fair CLR 81 54 39% 81 29.91 1012.5
16 15:53 NW 8 10.00 Partly Cloudy SCT050 81 57 44% 81 29.91 1012.3
16 14:53 N 9 G 22 10.00 A Few Clouds FEW060 79 55.9 45% 80 29.9 1011.8
16 13:53 N 14 10.00 Partly Cloudy FEW046 SCT060 78.1 57 48% 79 29.89 1011.7
16 12:53 N 9 10.00 Partly Cloudy SCT045 80.1 59 80.1 66.9 49% 81 29.9 1011.9
16 11:53 NW 8 10.00 A Few Clouds FEW040 FEW050 77 57.9 52% 79 29.9 1012.1
16 10:53 NW 8 10.00 Fair CLR 75.9 57.9 54% 78 29.89 1011.7
16 09:53 N 8 10.00 Fair CLR 75 60.1 60% 77 29.88 1011.3
16 08:53 N 6 10.00 Fair CLR 72 60.1 66% 29.88 1011.4
16 07:53 NW 5 10.00 Fair CLR 70 59 68% 29.87 1010.9
16 06:53 NW 3 10.00 Fair CLR 66.9 59 72 64.9 76% 29.85 1010.4
16 05:53 NW 6 10.00 Fair CLR 64.9 59 81% 29.83 1009.6
16 04:53 N 7 10.00 Fair CLR 66.9 59 76% 29.81 1009.0
16 03:53 N 8 10.00 Fair CLR 68 59 73% 29.81 1008.9
16 02:53 NW 8 10.00 Partly Cloudy SCT055 70 60.1 71% 29.81 1009.0
16 01:53 NW 9 10.00 Fair CLR 70 61 73% 29.8 1008.7
16 00:53 NW 6 10.00 Fair CLR 72 62.1 82.9 72 71% 29.8 1008.7
15 23:53 NW 5 10.00 Fair CLR 73.9 62.1 67% 29.79 1008.2
15 22:53 N 8 10.00 Fair CLR 75 63 66% 77 29.77 1007.5
15 21:53 NW 9 10.00 Fair CLR 77 64.9 66% 79 29.75 1007.0
15 20:53 NW 9 10.00 Mostly Cloudy BKN045 BKN055 79 66.9 67% 81 29.72 1006.0
15 19:53 NW 9 G 21 10.00 Partly Cloudy FEW036 SCT065 82 68 63% 85 29.69 1004.9
15 18:53 NW 13 10.00 Fair CLR 82.9 70 84.9 75 65% 87 29.68 1004.5
15 17:53 NW 15 G 18 10.00 Fair CLR 84.9 72 65% 91 29.68 1004.3
15 16:53 NW 13 10.00 A Few Clouds FEW028 FEW050 84.9 70 61% 89 29.7 1005.2
15 15:53 W 14 G 23 10.00 Mostly Cloudy SCT027 BKN040 82.9 73 72% 89 29.72 1005.7
15 14:53 SW 17 G 25 10.00 Mostly Cloudy SCT023 BKN043 84 73.9 72% 91 29.72 1005.8
15 13:53 W 7 10.00 Fair CLR 79 70 74% 82 29.7 1005.4
15 12:53 S 10 10.00 Fair CLR 75 66.9 75 71.1 76% 76 29.71 1005.6 0.01 0.11
15 11:53 S 8 10.00 Fair CLR 73 66 79% 29.74 1006.5
15 10:53 SW 8 10.00 A Few Clouds FEW090 FEW120 73 64.9 76% 29.78 1007.8
15 09:53 S 13 10.00 A Few Clouds FEW040 73 66 79% 29.76 1007.3 0.03 0.1
15 08:53 SW 13 4.00 Light Rain BKN090 OVC110 72 66.9 84% 29.86 1010.6 0.04
Date Time (cdt) Wind (mph) Vis. (mi.) Weather Sky Cond. Air Dwpt Max. Min. Relative Humidity Wind Chill (°F) Heat Index (°F) altimeter (in) sea level (mb) 1 hr 3 hr 6 hr
6 hour
Temperature (ºF) Pressure Precipitation (in)